Flag for Germany Weather past 2 weeks in Jena, Thuringia, Germany

Now
77 °F

Sunny.


Feels Like: 78 °F
Forecast: 52 / 79 °F
Wind: 2 mph from North

Location: Erfurt-Bindersleben

Current Time: Aug 1, 2015 at 6:13:21 PM

Latest Report: Aug 1, 2015 at 5:50 PM


Visibility: 10 mi

Pressure: 29.98 "Hg

Humidity: 32%

Dew point: 45 °F

Location of JenaLocation

Historic Weather in Jena — Graph

°F

Jena temperature yesterday

Maximum temperature yesterday: 66 °F (at 3:20 PM)
Minimum temperature yesterday: 46 °F (at 3:50 AM)
Average temperature yesterday: 57 °F

Past Weeks' High & Low Weather Summary

 TemperatureHumidityPressure
High91 °F (Jul 17, 4:50 PM)100% (Jul 19, 4:50 AM)30.12 "Hg (Jul 19, 4:50 AM)
Low46 °F (Jul 31, 3:50 AM)26% (Jul 17, 6:20 PM)29.62 "Hg (Jul 25, 4:50 AM)
Average65 °F65%29.90 "Hg
* Reported Jul 17 4:20 PM — Aug 1 4:50 PM, Jena, Weather by CustomWeather, © 2015

Note: Actual official high and low records may vary slightly from our data, if they occured in-between our weather recording intervals... More about our weather records

Advertising

Jena weather history for previous 24 hours

 ConditionsComfort  
Time TempWeatherWind HumidityBarometerVisibility
4:50 PM
Sat, Aug 1
75 °FSunny.3 mph31%29.98 "Hg10 mi
4:20 PM75 °FSunny.5 mph34%29.98 "Hg10 mi
3:50 PM73 °FSunny.7 mph36%29.98 "Hg10 mi
3:20 PM73 °FSunny.7 mph33%29.98 "Hg10 mi
2:50 PM73 °FPassing clouds.7 mph33%29.98 "HgN/A
2:20 PM73 °FPassing clouds.8 mph33%30.01 "HgN/A
1:50 PM72 °FPassing clouds.6 mph38%30.01 "HgN/A
1:20 PM70 °FSunny.7 mph40%30.01 "Hg10 mi
12:50 PM70 °FSunny.8 mph40%30.01 "Hg10 mi
12:20 PM68 °FPassing clouds.6 mph46%30.01 "HgN/A
11:50 AM66 °FPartly sunny.6 mph52%30.01 "HgN/A
11:20 AM64 °FSunny.7 mph52%30.01 "Hg10 mi
10:50 AM63 °FSunny.6 mph56%30.01 "Hg10 mi
10:20 AM61 °FPassing clouds.6 mph55%30.04 "HgN/A
9:50 AM59 °FSunny.5 mph59%30.04 "Hg10 mi
9:20 AM57 °FSunny.5 mph63%30.04 "Hg10 mi
8:50 AM55 °FSunny.5 mph67%30.01 "Hg10 mi
8:20 AM54 °FSunny.5 mph72%30.01 "Hg10 mi
7:50 AM52 °FSunny.3 mph72%30.01 "Hg10 mi
7:20 AM50 °FSunny.1 mph76%30.01 "Hg10 mi
6:50 AM50 °FSunny.3 mph76%30.01 "Hg10 mi
6:20 AM50 °FClear.3 mph71%30.04 "Hg10 mi
5:50 AM50 °FClear.5 mph71%30.04 "Hg10 mi
5:20 AM50 °FClear.5 mph71%30.04 "Hg10 mi
4:50 AM50 °FClear.3 mph71%30.04 "Hg10 mi
4:20 AM50 °FClear.3 mph71%30.04 "Hg10 mi
3:50 AM50 °FClear.6 mph71%30.04 "Hg10 mi
3:20 AM52 °FClear.6 mph67%30.07 "Hg10 mi
2:50 AM52 °FClear.5 mph67%30.07 "Hg10 mi
2:20 AM52 °FClear.6 mph67%30.07 "Hg10 mi
1:50 AM52 °FClear.3 mph67%30.07 "Hg10 mi
1:20 AM52 °FClear.5 mph67%30.07 "Hg10 mi
12:50 AM54 °FClear.6 mph63%30.07 "Hg10 mi
12:20 AM54 °FClear.7 mph63%30.07 "Hg10 mi
11:50 PM
Fri, Jul 31
54 °FClear.8 mph63%30.07 "Hg10 mi
11:20 PM55 °FClear.7 mph59%30.07 "Hg10 mi
10:50 PM55 °FClear.7 mph55%30.07 "Hg10 mi
10:20 PM55 °FClear.8 mph55%30.07 "Hg10 mi
9:50 PM57 °FSunny.6 mph51%30.07 "Hg10 mi
9:20 PM57 °FSunny.6 mph51%30.07 "Hg10 mi
8:50 PM61 °FSunny.6 mph45%30.07 "Hg10 mi
8:20 PM63 °FSunny.8 mph42%30.07 "Hg10 mi
7:50 PM64 °FSunny.7 mph37%30.07 "Hg10 mi
7:20 PM66 °FSunny.5 mph37%30.07 "Hg10 mi
6:50 PM66 °FSunny.5 mph35%30.07 "Hg10 mi
6:20 PM66 °FSunny.7 mph35%30.07 "Hg10 mi
Weather by CustomWeather, © 2015

See weather overviewHow to use our weather pages